User: anonymous   Login
Location: Homewood
(41.1836°S, 175.9581°E)
Time: 05:33:16
(UTC+00:00)
Language:

Cosmos 1553 Rocket - Orbit

View from above orbital plane
View from above orbital plane
View from above satellite
View from above satellite

Ground track
Ground track

The orbit data is extracted from the following two-line orbital elements,

1 14974U 84046B   24173.66555384  .00000064  00000-0  48927-4 0  9990
2 14974  82.9363  36.5971 0045833  34.1434  19.6466 13.77059355 14407
Epoch (UTC): 21 June 2024 15:58:23
Eccentricity: 0.0045833
inclination: 82.9363°
perigee height: 940 km
apogee height: 1008 km
right ascension of ascending node: 36.5971°
argument of perigee: 34.1434°
revolutions per day: 13.77059355
mean anomaly at epoch: 19.6466°
orbit number at epoch: 1440

The dashed part of the orbit path shows where the satellite is in the earth's shadow,  

DLR